Regional Weather Roundup
Issued by NWS Jackson, KY

Home | Current Version | Previous Version | Graphics & Text | Print | Product List | Glossary On
Versions: 1 2 3 4 5 6 7 8 9 10 11 12 13 14 15 16 17 18 19 20 21 22 23 24 25 26 27 28 29 30 31 32 33 34 35 36 37 38 39 40 41 42 43 44 45 46 47 48 49 50
000
ASUS43 KJKL 251610
RWRJKL

EAST KENTUCKY HOURLY WEATHER ROUNDUP
NATIONAL WEATHER SERVICE JACKSON KY
1200 PM EDT THU MAY 25 2017

NOTE: "FAIR" INDICATES FEW OR NO CLOUDS BELOW 12,000 FEET WITH
NO SIGNIFICANT WEATHER AND/OR OBSTRUCTIONS TO VISIBILITY.

* THESE REPORTS ARE NOT UNDER NWS QUALITY CONTROL AND MAY NOT
  REPORT WEATHER SUCH AS PRECIPITATION AND FOG.

KYZ079-080-083-085-087-088-110-112-115-119-120-251700
...EASTERN KENTUCKY...

CITY           SKY/WX    TMP DP  RH WIND       PRES   REMARKS
JACKSON        RAIN      54  53  97 VRB3      29.56S FOG
LONDON         LGT RAIN  56  52  86 SW15      29.61R
SOMERSET*      LGT RAIN  54  54 100 W16G22    29.64R
MONTICELLO*    LGT RAIN  57  54  89 W22G30    29.67R
WILLIAMSBURG*  CLOUDY    54  54 100 SW8       29.63S
MIDDLESBORO*   DRIZZLE   56  53  88 W6        29.65R
HARLAN APT*    CLOUDY    54  52  94 CALM      29.63R
PIKE CO APT*   LGT RAIN  53  53 100 S3        29.57S
BIG SANDY APT* LGT RAIN  55  55  99 SW8       29.56S
MOREHEAD APT*  RAIN      55  54  94 SW15G22   29.50F VSB 1/2
$$

KYZ035-036-041-042-044-050-067-078-099-251700
...CENTRAL KENTUCKY...

CITY           SKY/WX    TMP DP  RH WIND       PRES   REMARKS
MT STERLING*   RAIN     N/A N/A N/A W13       29.52S
FLEMING/MASON* HVY RAIN  56  56 100 SW14G21   29.47S
DANVILLE*      DRIZZLE   55  54  94 W18G24    29.58R
LEXINGTON      LGT RAIN  58  55  90 W16G28    29.53R
FRANKFORT      LGT RAIN  59  55  87 W10G23    29.52R FOG
LOUISVILLE     CLOUDY    60  58  92 W14       29.57R FOG
LEBANON*       LGT RAIN  57  57 100 SW14G25   29.59R
GLASGOW*       CLOUDY    59  54  83 W13G22    29.67R
BOWLING GREEN  CLOUDY    62  55  77 W14G25    29.69R
$$

KYZ091>093-OHZ055-061-077-WVZ005-015-034-035-042-251700
...SOUTHERN OHIO/WEST VIRGINIA...

CITY           SKY/WX    TMP DP  RH WIND       PRES   REMARKS
COVINGTON      LGT RAIN  60  58  92 W15G21    29.47R
COLUMBUS       LGT RAIN  62  58  86 SW8       29.45S
DAYTON         PTSUNNY   67  56  67 NW3       29.45S
WILMINGTON     CLOUDY    63  60  90 S7        29.44S
HUNTINGTON     LGT RAIN  58  53  84 S10       29.52R
CHARLESTON     CLOUDY    59  50  72 S16G22    29.54R
PINEVILLE*       N/A     57  51  79 MISG      29.63S
BECKLEY        CLOUDY    55  48  77 W14       29.58R
BLUEFIELD      CLOUDY    54  45  71 W16       29.60S
LOGAN CO APT*  PTSUNNY   54  52  94 S8        29.56S FOG
$$

VAZ002-007-008-TNZ017-027-036-066-071-251700
...SOUTHWEST VIRGINIA/EAST TENNESSEE...

CITY           SKY/WX    TMP DP  RH WIND       PRES   REMARKS
WISE*            N/A     52  52 100 SW12G22   29.63S
JONESVILLE*    LGT RAIN  55  54  94 SW12      29.66R
ABINGDON*      DRIZZLE   55  53  90 W10G18    29.65R
BRISTOL        LGT RAIN  57  51  80 SW16G22   29.65R
MORRISTOWN*    CLOUDY    57  54  88 W13G24    29.66R
SEVIERVILLE*   CLOUDY    57  50  77 SW12      29.69R
KNOXVILLE      PTSUNNY   60  53  77 SW16      29.69R
LAFOLLETTE*    CLOUDY    61  50  67 SW10G22   29.69R
OAK RIDGE      CLOUDY    62  51  67 SW8       29.69S
CROSSVILLE     CLOUDY    56  49  77 W17G26    29.72R
NASHVILLE      PTSUNNY   67  52  58 W14G28    29.73R
$$

...KEY TO REMARKS...
VSB - VISIBILITY IN MILES
WCI - WIND CHILL INDEX
HX  - HEAT INDEX

$$



USA.gov is the U.S. government's official web portal to all federal, state and local government web resources and services.